{"data":{"norad_id":55801,"intl_designator":"2023-029F","name":"ONEWEB-0564","alt_names":[],"object_type":"PAYLOAD","status":"ACTIVE","operator":null,"country":"UK","launch_date":"2023-03-09","launch_site_code":"AFETR","launch_vehicle":null,"mission":null,"orbit_class":"UNKNOWN","rcs_meters":null,"size_class":null,"mass_kg":null,"dimensions":null,"purposes":["comms"],"wikipedia_slug":null,"has_3d_model":false,"image_url":null,"decayed_at":null,"tle_current":{"epoch":"2026-09-20T05:02:38.249952Z","epoch_age_seconds":46974,"freshness":"FRESH","line1":"1 55801U 23029F   26263.21016493  .00000012  00000+0 -17373-5 0  9999","line2":"2 55801  87.9141 255.4925 0002295  94.1855 265.9541 13.20772311173698","mean_motion":13.20772311,"eccentricity":0.0002295,"inclination_deg":87.9141,"raan_deg":255.4925,"arg_perigee_deg":94.1855,"mean_anomaly_deg":265.9541,"bstar":-1.7373e-6,"rev_number":17369,"period_min":109.02711905807,"perigee_km":1180.0364731635,"apogee_km":1183.5064711523,"semimajor_km":7559.9084721579,"source":"CELESTRAK","updated_at":"2026-09-20T09:00:44.759800Z"}}}